ON6AT-20 Weather Reports


time (UTC)temp
F
wind
direction
speed
knots
gust
knots
rain 1hr
in
rain 24hr
in
rain mn
in
humidity
%
barometer
mb
20260506235403 47 0 0.0 0.0 0.00 0.00 0.00 85 1013.6
20260506234503 47 0 0.0 0.0 0.00 0.00 0.00 85 1013.5
20260506233603 47 0 0.0 0.0 0.00 0.00 0.00 85 1013.3
20260506232724 46 0 0.0 0.0 0.00 0.00 0.00 86 1013.7
20260506231824 46 0 0.0 0.0 0.00 0.00 0.00 86 1013.4
20260506230903 46 0 0.0 0.0 0.00 0.00 0.00 86 1013.3
20260506230003 46 0 0.0 0.0 0.00 0.00 0.00 85 1013.1
20260506225403 46 0 0.0 0.0 0.00 0.00 0.00 84 1013.2
20260506224503 46 0 0.0 0.0 0.00 0.00 0.00 83 1013.1
20260506223603 45 0 0.0 0.0 0.00 0.00 0.00 83 1013.1
20260506222705 46 0 0.0 0.0 0.00 0.00 0.00 82 1013.1
20260506221803 46 0 0.0 0.0 0.00 0.00 0.00 81 1012.9
20260506220903 46 0 0.0 0.0 0.00 0.00 0.00 80 1013.0
20260506220003 45 0 0.0 0.0 0.00 0.00 0.00 81 1013.2
20260506215403 45 0 0.0 0.0 0.00 0.00 0.00 81 1012.9
20260506214503 46 0 0.0 0.0 0.00 0.00 0.00 79 1012.8
20260506213603 47 0 0.0 0.0 0.00 0.00 0.00 79 1012.8
20260506212703 47 0 0.0 0.0 0.00 0.00 0.00 77 1012.9
20260506211803 48 0 0.0 0.0 0.00 0.00 0.00 77 1012.8
20260506210903 48 0 0.0 0.0 0.00 0.00 0.00 74 1012.6
20260506210024 49 0 0.0 0.0 0.00 0.00 0.00 72 1012.6
20260506205424 49 0 0.0 0.0 0.00 0.00 0.00 72 1012.5
20260506204503 50 0 0.0 0.0 0.00 0.00 0.00 70 1012.5
20260506203603 51 54 0.0 1.7 0.00 0.00 0.00 69 1012.3
20260506202703 52 47 0.9 2.6 0.00 0.00 0.00 67 1012.4
20260506201824 52 29 0.9 3.5 0.00 0.00 0.00 69 1012.3
20260506200903 52 293 0.0 0.9 0.00 0.00 0.00 81 1012.2
20260506200003 52 293 0.9 2.6 0.00 0.00 0.00 81 1012.1
20260506195403 53 305 0.9 2.6 0.00 0.00 0.00 81 1012.2
20260506194503 53 22 0.9 1.7 0.00 0.00 0.00 80 1012.0
20260506193603 53 46 0.9 2.6 0.00 0.00 0.00 80 1012.0
20260506192703 53 357 0.9 2.6 0.00 0.00 0.00 78 1011.9
20260506191803 53 328 0.9 3.5 0.00 0.00 0.00 78 1011.7
20260506190903 53 322 1.7 3.5 0.00 0.00 0.00 78 1011.4
20260506190003 54 316 1.7 5.2 0.00 0.00 0.00 77 1011.5
20260506185424 54 335 1.7 3.5 0.00 0.00 0.00 77 1011.4